Location: Table Mountain
(47.2500°N, 120.5778°W)
Time: 23:04:21
(UTC-07:00)

UKube-1 - Visible Passes

Search period start: 15 August 2018 00:00
Search period end: 25 August 2018 00:00
Orbit: 613 x 621 km, 98.4° (Epoch: 15 August)

Date Brightness Start Highest point End Pass type
(mag) Time Alt. Az. Time Alt. Az. Time Alt. Az.
15 Aug ? 01:49:03 10° E 01:51:04 13° ENE 01:53:06 10° NNE visible
15 Aug ? 03:25:36 56° S 03:26:28 81° WSW 03:30:48 10° NNW visible
16 Aug ? 02:05:09 13° E 02:07:15 18° ENE 02:10:10 10° NNE visible
16 Aug ? 03:42:16 50° SW 03:42:52 55° W 03:47:06 10° NNW visible
17 Aug ? 02:21:49 19° E 02:23:28 25° ENE 02:26:58 10° N visible
17 Aug ? 03:58:55 36° WSW 03:59:18 37° W 04:03:19 10° NNW visible
18 Aug ? 02:38:29 28° ESE 02:39:44 34° ENE 02:43:38 10° N visible
18 Aug ? 04:15:35 26° W 04:15:47 26° W 04:19:24 10° NW visible
19 Aug ? 02:55:08 41° ESE 02:56:02 48° ENE 03:00:11 10° N visible
19 Aug ? 04:32:15 18° W 04:32:17 18° W 04:35:18 10° NW visible
20 Aug ? 03:11:47 62° ESE 03:12:20 71° ENE 03:16:39 10° N visible
20 Aug ? 04:48:54 13° W 04:48:54 13° W 04:50:46 10° WNW visible
21 Aug ? 01:51:21 10° E 01:53:18 13° ENE 01:55:22 10° NNE visible
21 Aug ? 03:28:27 75° SSW 03:28:42 79° WSW 03:33:02 10° NNW visible
22 Aug ? 02:08:00 16° E 02:09:29 18° ENE 02:12:26 10° NNE visible
22 Aug ? 03:45:08 54° W 03:45:08 54° W 03:49:20 10° NNW visible
23 Aug ? 02:24:41 23° E 02:25:43 25° ENE 02:29:13 10° N visible
23 Aug ? 04:01:47 36° W 04:01:47 36° W 04:05:33 10° NNW visible
24 Aug ? 02:41:21 33° E 02:41:58 34° ENE 02:45:52 10° N visible
24 Aug ? 04:18:27 25° W 04:18:27 25° W 04:21:37 10° NW visible
